Starlink 32398

operational
NORAD ID: 61624 Int'l Des: 2024-191 Owner: SPXS Country: US Constellation: starlink
LEOCIRCULAR

About Starlink 32398

Description loading...

Live Position

Loading 3D Globe...

Upcoming Passes

Altitude History

Altitude vs Time

uPlot chart will show altitude changes over time

Two-Line Element Set

1 61624U 24191D 25354.09842150 .00000257 00000-0 18866-4 0 9991
2 61624 43.0030 244.0254 0001055 276.4562 83.6169 15.27577061 65369
Epoch: Dec 20, 2025 • Age: 6 hours

Current Status

Altitude 485.1 km
Velocity 7.62 km/s
Sub-Earth Point -12.97°S, 10.83°E
Launch Date Oct 23, 2024
Age 1.1 years
Type internet

Technical Details

Classification Payload
Mass 730.00 kg
Dry Mass 700.00 kg
Total Mass 730.00 kg
Length 0.30 m
Diameter 4.10 m
Span 29.00 m
Shape Box + pan
Manufacturer SPXS
Bus Type Starlink V2M
Phase Status In Orbit
Owner/State SPXS/US

Large Constellations

Loading constellations...